Time,TemperatureF,DewpointF,PressureIn,WindDirection,WindDirectionDegrees,WindSpeedMPH,WindSpeedGustMPH,Humidity,HourlyPrecipIn,Conditions,Clouds,dailyrainin,SoftwareType,DateUTC
2013-05-03 00:04:00,61.2,25.1,25.06,NNE,23,12.0,-999.0,25,-99.99,,,-99.99,dwt +perl,2013-05-03 07:04:00,
2013-05-03 00:09:00,61.6,25.4,25.06,NNE,30,8.0,-999.0,25,-99.99,,,-99.99,dwt +perl,2013-05-03 07:09:00,
2013-05-03 00:14:00,61.4,25.3,25.06,NE,41,7.0,-999.0,25,-99.99,,,-99.99,dwt +perl,2013-05-03 07:14:00,
2013-05-03 00:19:00,61.3,24.2,25.06,NE,40,6.0,-999.0,24,-99.99,,,-99.99,dwt +perl,2013-05-03 07:19:00,
2013-05-03 00:24:00,61.4,25.3,25.06,NNE,20,12.0,-999.0,25,-99.99,,,-99.99,dwt +perl,2013-05-03 07:24:00,
2013-05-03 00:29:00,61.4,24.3,25.06,NNE,27,13.0,-999.0,24,-99.99,,,-99.99,dwt +perl,2013-05-03 07:29:00,
2013-05-03 00:34:00,61.4,24.3,25.06,NNE,28,6.0,-999.0,24,-99.99,,,-99.99,dwt +perl,2013-05-03 07:34:00,
2013-05-03 00:39:00,61.4,24.3,25.06,NNE,29,9.0,-999.0,24,-99.99,,,-99.99,dwt +perl,2013-05-03 07:39:00,
2013-05-03 00:44:00,61.4,25.3,25.06,NNE,21,9.0,-999.0,25,-99.99,,,-99.99,dwt +perl,2013-05-03 07:44:00,
2013-05-03 00:49:00,61.3,25.2,25.06,NNE,20,8.0,-999.0,25,-99.99,,,-99.99,dwt +perl,2013-05-03 07:49:00,
2013-05-03 00:54:00,61.4,25.3,25.06,NNE,29,8.0,-999.0,25,-99.99,,,-99.99,dwt +perl,2013-05-03 07:54:00,
2013-05-03 00:59:00,61.3,25.2,25.06,NE,35,6.0,-999.0,25,-99.99,,,-99.99,dwt +perl,2013-05-03 07:59:00,
2013-05-03 01:04:00,61.4,25.3,25.06,NE,37,6.0,-999.0,25,-99.99,,,-99.99,dwt +perl,2013-05-03 08:04:00,
2013-05-03 01:09:00,61.1,24.0,25.06,NNE,15,7.0,-999.0,24,-99.99,,,-99.99,dwt +perl,2013-05-03 08:09:00,
2013-05-03 01:14:00,61.1,24.0,25.06,NNE,17,9.0,-999.0,24,-99.99,,,-99.99,dwt +perl,2013-05-03 08:14:00,
2013-05-03 01:19:00,61.0,24.0,25.06,NNE,32,9.0,-999.0,24,-99.99,,,-99.99,dwt +perl,2013-05-03 08:19:00,
2013-05-03 01:24:00,60.8,24.8,25.05,NNE,27,5.0,-999.0,25,-99.99,,,-99.99,dwt +perl,2013-05-03 08:24:00,
2013-05-03 01:29:00,60.9,23.9,25.05,NNE,26,10.0,-999.0,24,-99.99,,,-99.99,dwt +perl,2013-05-03 08:29:00,
2013-05-03 01:34:00,61.0,24.0,25.05,NE,39,6.0,-999.0,24,-99.99,,,-99.99,dwt +perl,2013-05-03 08:34:00,
2013-05-03 01:39:00,60.9,23.9,25.05,NE,35,6.0,-999.0,24,-99.99,,,-99.99,dwt +perl,2013-05-03 08:39:00,
2013-05-03 01:44:00,60.8,23.8,25.05,NE,40,6.0,-999.0,24,-99.99,,,-99.99,dwt +perl,2013-05-03 08:44:00,
2013-05-03 01:49:00,60.9,24.8,25.05,NNE,32,8.0,-999.0,25,-99.99,,,-99.99,dwt +perl,2013-05-03 08:49:00,
2013-05-03 01:54:00,60.8,23.8,25.05,NE,41,5.0,-999.0,24,-99.99,,,-99.99,dwt +perl,2013-05-03 08:54:00,
2013-05-03 01:59:00,60.7,23.7,25.05,NNE,22,7.0,-999.0,24,-99.99,,,-99.99,dwt +perl,2013-05-03 08:59:00,
2013-05-03 02:04:00,60.7,23.7,25.04,NNE,21,7.0,-999.0,24,-99.99,,,-99.99,dwt +perl,2013-05-03 09:04:00,
2013-05-03 02:09:00,60.6,24.6,25.04,NNE,33,6.0,-999.0,25,-99.99,,,-99.99,dwt +perl,2013-05-03 09:09:00,
2013-05-03 02:14:00,60.7,23.7,25.04,NNE,23,6.0,-999.0,24,-99.99,,,-99.99,dwt +perl,2013-05-03 09:14:00,
2013-05-03 02:19:00,60.6,23.6,25.04,NNE,21,7.0,-999.0,24,-99.99,,,-99.99,dwt +perl,2013-05-03 09:19:00,
2013-05-03 02:24:00,60.6,23.6,25.04,NE,37,5.0,-999.0,24,-99.99,,,-99.99,dwt +perl,2013-05-03 09:24:00,
2013-05-03 02:29:00,60.6,23.6,25.03,NE,42,5.0,-999.0,24,-99.99,,,-99.99,dwt +perl,2013-05-03 09:29:00,
2013-05-03 02:34:00,60.8,22.8,25.03,NE,35,9.0,-999.0,23,-99.99,,,-99.99,dwt +perl,2013-05-03 09:34:00,
2013-05-03 02:39:00,61.0,21.9,25.03,NNE,18,9.0,-999.0,22,-99.99,,,-99.99,dwt +perl,2013-05-03 09:39:00,
2013-05-03 02:44:00,60.9,21.8,25.03,NNE,26,6.0,-999.0,22,-99.99,,,-99.99,dwt +perl,2013-05-03 09:44:00,
2013-05-03 02:49:00,61.0,20.8,25.03,NNE,18,10.0,-999.0,21,-99.99,,,-99.99,dwt +perl,2013-05-03 09:49:00,
2013-05-03 02:54:00,61.1,20.9,25.03,NNE,27,10.0,-999.0,21,-99.99,,,-99.99,dwt +perl,2013-05-03 09:54:00,
2013-05-03 02:59:00,61.1,19.7,25.03,NNE,29,9.0,-999.0,20,-99.99,,,-99.99,dwt +perl,2013-05-03 09:59:00,
2013-05-03 03:04:00,61.1,19.7,25.03,NNE,23,9.0,-999.0,20,-99.99,,,-99.99,dwt +perl,2013-05-03 10:04:00,
2013-05-03 03:09:00,61.1,19.7,25.03,NNE,27,10.0,-999.0,20,-99.99,,,-99.99,dwt +perl,2013-05-03 10:09:00,
2013-05-03 03:14:00,61.0,19.6,25.02,North,9,10.0,-999.0,20,-99.99,,,-99.99,dwt +perl,2013-05-03 10:14:00,
2013-05-03 03:19:00,60.9,19.6,25.02,NNE,33,6.0,-999.0,20,-99.99,,,-99.99,dwt +perl,2013-05-03 10:19:00,
2013-05-03 03:24:00,60.7,20.5,25.02,NNE,33,5.0,-999.0,21,-99.99,,,-99.99,dwt +perl,2013-05-03 10:24:00,
2013-05-03 03:29:00,60.5,20.4,25.02,NNE,25,5.0,-999.0,21,-99.99,,,-99.99,dwt +perl,2013-05-03 10:29:00,
2013-05-03 03:34:00,60.4,20.3,25.02,NNW,339,3.0,-999.0,21,-99.99,,,-99.99,dwt +perl,2013-05-03 10:34:00,
2013-05-03 03:39:00,60.3,20.2,25.02,NNE,12,4.0,-999.0,21,-99.99,,,-99.99,dwt +perl,2013-05-03 10:39:00,
2013-05-03 03:44:00,60.2,20.1,25.02,NNW,332,8.0,-999.0,21,-99.99,,,-99.99,dwt +perl,2013-05-03 10:44:00,
2013-05-03 03:49:00,60.1,20.0,25.02,NNW,335,4.0,-999.0,21,-99.99,,,-99.99,dwt +perl,2013-05-03 10:49:00,
2013-05-03 03:54:00,60.1,20.0,25.02,North,8,4.0,-999.0,21,-99.99,,,-99.99,dwt +perl,2013-05-03 10:54:00,
2013-05-03 03:59:00,60.0,20.0,25.02,NNE,27,4.0,-999.0,21,-99.99,,,-99.99,dwt +perl,2013-05-03 10:59:00,
2013-05-03 04:04:00,60.2,20.1,25.02,NNE,27,7.0,-999.0,21,-99.99,,,-99.99,dwt +perl,2013-05-03 11:04:00,
2013-05-03 04:09:00,60.2,19.0,25.02,NNE,14,5.0,-999.0,20,-99.99,,,-99.99,dwt +perl,2013-05-03 11:09:00,
2013-05-03 04:14:00,60.3,20.2,25.02,North,8,4.0,-999.0,21,-99.99,,,-99.99,dwt +perl,2013-05-03 11:14:00,
2013-05-03 04:19:00,60.2,20.1,25.02,NNE,26,8.0,-999.0,21,-99.99,,,-99.99,dwt +perl,2013-05-03 11:19:00,
2013-05-03 04:24:00,60.3,20.2,25.02,NNE,31,4.0,-999.0,21,-99.99,,,-99.99,dwt +perl,2013-05-03 11:24:00,
2013-05-03 04:29:00,60.3,20.2,25.02,NNE,31,4.0,-999.0,21,-99.99,,,-99.99,dwt +perl,2013-05-03 11:29:00,
2013-05-03 04:34:00,60.2,20.1,25.02,NNE,14,6.0,-999.0,21,-99.99,,,-99.99,dwt +perl,2013-05-03 11:34:00,
2013-05-03 04:39:00,60.3,20.2,25.01,NNE,16,5.0,-999.0,21,-99.99,,,-99.99,dwt +perl,2013-05-03 11:39:00,
2013-05-03 04:44:00,60.2,20.1,25.01,NNE,27,4.0,-999.0,21,-99.99,,,-99.99,dwt +perl,2013-05-03 11:44:00,
2013-05-03 04:49:00,60.3,20.2,25.01,NNE,27,4.0,-999.0,21,-99.99,,,-99.99,dwt +perl,2013-05-03 11:49:00,
2013-05-03 04:54:00,60.4,20.3,25.01,NNE,14,4.0,-999.0,21,-99.99,,,-99.99,dwt +perl,2013-05-03 11:54:00,
2013-05-03 04:59:00,60.5,20.4,25.01,NNE,26,2.0,-999.0,21,-99.99,,,-99.99,dwt +perl,2013-05-03 11:59:00,
2013-05-03 05:04:00,60.6,20.5,25.01,NNE,29,5.0,-999.0,21,-99.99,,,-99.99,dwt +perl,2013-05-03 12:04:00,
2013-05-03 05:09:00,60.6,20.5,25.01,NNE,29,4.0,-999.0,21,-99.99,,,-99.99,dwt +perl,2013-05-03 12:09:00,
2013-05-03 05:14:00,60.5,20.4,25.01,NNE,27,5.0,-999.0,21,-99.99,,,-99.99,dwt +perl,2013-05-03 12:14:00,
2013-05-03 05:19:00,60.4,20.3,25.01,NNE,30,6.0,-999.0,21,-99.99,,,-99.99,dwt +perl,2013-05-03 12:19:00,
2013-05-03 05:24:00,60.1,20.0,25.01,NNE,20,4.0,-999.0,21,-99.99,,,-99.99,dwt +perl,2013-05-03 12:24:00,
2013-05-03 05:29:00,60.1,20.0,25.01,North,11,6.0,-999.0,21,-99.99,,,-99.99,dwt +perl,2013-05-03 12:29:00,
2013-05-03 05:34:00,60.2,20.1,25.01,NNE,31,5.0,-999.0,21,-99.99,,,-99.99,dwt +perl,2013-05-03 12:34:00,
2013-05-03 05:39:00,60.2,21.2,25.00,NNE,31,7.0,-999.0,22,-99.99,,,-99.99,dwt +perl,2013-05-03 12:39:00,
2013-05-03 05:44:00,60.0,20.0,25.00,NNE,27,5.0,-999.0,21,-99.99,,,-99.99,dwt +perl,2013-05-03 12:44:00,
2013-05-03 05:49:00,60.1,21.1,25.00,NNE,29,7.0,-999.0,22,-99.99,,,-99.99,dwt +perl,2013-05-03 12:49:00,
2013-05-03 05:54:00,60.1,21.1,25.00,NNE,28,6.0,-999.0,22,-99.99,,,-99.99,dwt +perl,2013-05-03 12:54:00,
2013-05-03 05:59:00,60.2,21.2,25.00,NNE,16,5.0,-999.0,22,-99.99,,,-99.99,dwt +perl,2013-05-03 12:59:00,
2013-05-03 06:04:00,60.2,21.2,25.00,NNE,25,6.0,-999.0,22,-99.99,,,-99.99,dwt +perl,2013-05-03 13:04:00,
2013-05-03 06:09:00,60.2,21.2,25.00,NNE,22,6.0,-999.0,22,-99.99,,,-99.99,dwt +perl,2013-05-03 13:09:00,
2013-05-03 06:14:00,60.2,21.2,25.00,NNE,24,4.0,-999.0,22,-99.99,,,-99.99,dwt +perl,2013-05-03 13:14:00,
2013-05-03 06:19:00,60.1,21.1,25.00,NNE,21,4.0,-999.0,22,-99.99,,,-99.99,dwt +perl,2013-05-03 13:19:00,
2013-05-03 06:24:00,60.1,21.1,25.00,NNE,33,6.0,-999.0,22,-99.99,,,-99.99,dwt +perl,2013-05-03 13:24:00,
2013-05-03 06:29:00,60.1,21.1,25.00,NNE,17,4.0,-999.0,22,-99.99,,,-99.99,dwt +perl,2013-05-03 13:29:00,
2013-05-03 06:34:00,60.1,21.1,25.00,NNE,21,4.0,-999.0,22,-99.99,,,-99.99,dwt +perl,2013-05-03 13:34:00,
2013-05-03 06:39:00,60.3,21.3,25.00,NNE,31,4.0,-999.0,22,-99.99,,,-99.99,dwt +perl,2013-05-03 13:39:00,
2013-05-03 06:44:00,60.3,21.3,25.00,NNE,27,5.0,-999.0,22,-99.99,,,-99.99,dwt +perl,2013-05-03 13:44:00,
2013-05-03 06:49:00,60.4,22.4,25.00,North,359,5.0,-999.0,23,-99.99,,,-99.99,dwt +perl,2013-05-03 13:49:00,
2013-05-03 06:54:00,60.5,21.5,25.00,NNE,30,6.0,-999.0,22,-99.99,,,-99.99,dwt +perl,2013-05-03 13:54:00,
2013-05-03 06:59:00,60.7,21.6,25.00,North,4,5.0,-999.0,22,-99.99,,,-99.99,dwt +perl,2013-05-03 13:59:00,
2013-05-03 07:04:00,60.7,22.7,25.00,NNE,16,7.0,-999.0,23,-99.99,,,-99.99,dwt +perl,2013-05-03 14:04:00,
2013-05-03 07:09:00,61.0,22.9,25.00,NNE,23,9.0,-999.0,23,-99.99,,,-99.99,dwt +perl,2013-05-03 14:09:00,
2013-05-03 07:14:00,61.1,22.0,25.00,NNE,21,5.0,-999.0,22,-99.99,,,-99.99,dwt +perl,2013-05-03 14:14:00,
2013-05-03 07:19:00,61.3,23.2,25.00,NNE,19,5.0,-999.0,23,-99.99,,,-99.99,dwt +perl,2013-05-03 14:19:00,
2013-05-03 07:24:00,61.4,22.2,25.00,NNE,27,5.0,-999.0,22,-99.99,,,-99.99,dwt +perl,2013-05-03 14:24:00,
2013-05-03 07:29:00,61.4,23.3,25.00,NNW,347,5.0,-999.0,23,-99.99,,,-99.99,dwt +perl,2013-05-03 14:29:00,
2013-05-03 07:34:00,61.5,23.4,25.00,NNE,25,6.0,-999.0,23,-99.99,,,-99.99,dwt +perl,2013-05-03 14:34:00,
2013-05-03 07:39:00,61.5,22.3,25.00,NNW,337,8.0,-999.0,22,-99.99,,,-99.99,dwt +perl,2013-05-03 14:39:00,
2013-05-03 07:44:00,61.5,22.3,25.00,WNW,303,5.0,-999.0,22,-99.99,,,-99.99,dwt +perl,2013-05-03 14:44:00,
2013-05-03 07:49:00,61.8,23.6,24.99,NNE,16,6.0,-999.0,23,-99.99,,,-99.99,dwt +perl,2013-05-03 14:49:00,
2013-05-03 07:54:00,62.0,22.7,25.00,NNE,32,5.0,-999.0,22,-99.99,,,-99.99,dwt +perl,2013-05-03 14:54:00,
2013-05-03 07:59:00,62.1,22.8,24.99,NNW,332,4.0,-999.0,22,-99.99,,,-99.99,dwt +perl,2013-05-03 14:59:00,
2013-05-03 08:04:00,62.1,23.9,24.99,North,354,2.0,-999.0,23,-99.99,,,-99.99,dwt +perl,2013-05-03 15:04:00,
2013-05-03 08:09:00,62.3,24.0,24.99,NW,316,6.0,-999.0,23,-99.99,,,-99.99,dwt +perl,2013-05-03 15:09:00,
2013-05-03 08:14:00,62.5,24.2,24.99,NE,52,3.0,-999.0,23,-99.99,,,-99.99,dwt +perl,2013-05-03 15:14:00,
2013-05-03 08:19:00,63.1,26.7,24.99,NNE,32,1.0,-999.0,25,-99.99,,,-99.99,dwt +perl,2013-05-03 15:19:00,
2013-05-03 08:24:00,63.3,23.8,24.99,NNE,12,2.0,-999.0,22,-99.99,,,-99.99,dwt +perl,2013-05-03 15:24:00,
2013-05-03 08:29:00,63.3,23.8,24.99,North,354,2.0,-999.0,22,-99.99,,,-99.99,dwt +perl,2013-05-03 15:29:00,
2013-05-03 08:34:00,63.4,27.0,24.99,NE,35,7.0,-999.0,25,-99.99,,,-99.99,dwt +perl,2013-05-03 15:34:00,
2013-05-03 08:39:00,63.6,21.8,24.99,NNW,331,9.0,-999.0,20,-99.99,,,-99.99,dwt +perl,2013-05-03 15:39:00,
2013-05-03 08:44:00,63.0,23.6,24.99,NW,322,6.0,-999.0,22,-99.99,,,-99.99,dwt +perl,2013-05-03 15:44:00,
2013-05-03 08:49:00,63.0,23.6,24.98,NW,321,7.0,-999.0,22,-99.99,,,-99.99,dwt +perl,2013-05-03 15:49:00,
2013-05-03 08:54:00,62.9,25.6,24.98,NNW,345,4.0,-999.0,24,-99.99,,,-99.99,dwt +perl,2013-05-03 15:54:00,
2013-05-03 08:59:00,63.1,25.7,24.98,NW,312,3.0,-999.0,24,-99.99,,,-99.99,dwt +perl,2013-05-03 15:59:00,
2013-05-03 09:04:00,63.3,24.9,24.98,WNW,290,1.0,-999.0,23,-99.99,,,-99.99,dwt +perl,2013-05-03 16:04:00,
2013-05-03 09:09:00,63.6,25.1,24.98,NW,314,4.0,-999.0,23,-99.99,,,-99.99,dwt +perl,2013-05-03 16:09:00,
2013-05-03 09:14:00,64.2,26.6,24.98,NNW,332,4.0,-999.0,24,-99.99,,,-99.99,dwt +perl,2013-05-03 16:14:00,
2013-05-03 09:19:00,64.3,25.7,24.98,NW,325,3.0,-999.0,23,-99.99,,,-99.99,dwt +perl,2013-05-03 16:19:00,
2013-05-03 09:24:00,64.6,27.0,24.98,NW,324,0.0,-999.0,24,-99.99,,,-99.99,dwt +perl,2013-05-03 16:24:00,
2013-05-03 09:29:00,64.7,23.9,24.98,NW,324,1.0,-999.0,21,-99.99,,,-99.99,dwt +perl,2013-05-03 16:29:00,
2013-05-03 09:34:00,64.7,27.1,24.98,NW,325,1.0,-999.0,24,-99.99,,,-99.99,dwt +perl,2013-05-03 16:34:00,
2013-05-03 09:39:00,65.3,30.5,24.98,NW,324,1.0,-999.0,27,-99.99,,,-99.99,dwt +perl,2013-05-03 16:39:00,
2013-05-03 09:44:00,65.5,28.7,24.98,NW,324,0.0,-999.0,25,-99.99,,,-99.99,dwt +perl,2013-05-03 16:44:00,
2013-05-03 09:49:00,65.2,29.5,24.98,NW,312,2.0,-999.0,26,-99.99,,,-99.99,dwt +perl,2013-05-03 16:49:00,
2013-05-03 09:54:00,65.2,29.5,24.98,NW,310,3.0,-999.0,26,-99.99,,,-99.99,dwt +perl,2013-05-03 16:54:00,
2013-05-03 09:59:00,65.6,27.8,24.98,NW,310,0.0,-999.0,24,-99.99,,,-99.99,dwt +perl,2013-05-03 16:59:00,
2013-05-03 10:04:00,65.6,29.8,24.97,NW,310,2.0,-999.0,26,-99.99,,,-99.99,dwt +perl,2013-05-03 17:04:00,
2013-05-03 10:09:00,65.9,30.0,24.97,NW,310,0.0,-999.0,26,-99.99,,,-99.99,dwt +perl,2013-05-03 17:09:00,
2013-05-03 10:14:00,66.6,29.7,24.97,NW,310,2.0,-999.0,25,-99.99,,,-99.99,dwt +perl,2013-05-03 17:14:00,
2013-05-03 10:19:00,66.4,29.5,24.97,WNW,303,1.0,-999.0,25,-99.99,,,-99.99,dwt +perl,2013-05-03 17:19:00,
2013-05-03 10:24:00,66.1,29.2,24.97,West,260,1.0,-999.0,25,-99.99,,,-99.99,dwt +perl,2013-05-03 17:24:00,
2013-05-03 10:29:00,66.4,30.5,24.97,WSW,258,5.0,-999.0,26,-99.99,,,-99.99,dwt +perl,2013-05-03 17:29:00,
2013-05-03 10:34:00,66.6,31.6,24.97,WSW,256,3.0,-999.0,27,-99.99,,,-99.99,dwt +perl,2013-05-03 17:34:00,
2013-05-03 10:39:00,66.9,29.9,24.97,WSW,256,5.0,-999.0,25,-99.99,,,-99.99,dwt +perl,2013-05-03 17:39:00,
2013-05-03 10:44:00,66.3,28.4,24.97,WSW,242,7.0,-999.0,24,-99.99,,,-99.99,dwt +perl,2013-05-03 17:44:00,
2013-05-03 10:49:00,66.0,30.1,24.97,SW,230,4.0,-999.0,26,-99.99,,,-99.99,dwt +perl,2013-05-03 17:49:00,
2013-05-03 10:54:00,65.8,29.0,24.97,WSW,239,7.0,-999.0,25,-99.99,,,-99.99,dwt +perl,2013-05-03 17:54:00,
2013-05-03 10:59:00,65.9,30.0,24.97,West,259,6.0,-999.0,26,-99.99,,,-99.99,dwt +perl,2013-05-03 17:59:00,
2013-05-03 11:04:00,65.6,27.8,24.97,WSW,247,6.0,-999.0,24,-99.99,,,-99.99,dwt +perl,2013-05-03 18:04:00,
2013-05-03 11:09:00,65.9,28.1,24.97,WSW,250,8.0,-999.0,24,-99.99,,,-99.99,dwt +perl,2013-05-03 18:09:00,
2013-05-03 11:14:00,66.0,29.2,24.97,SW,226,6.0,-999.0,25,-99.99,,,-99.99,dwt +perl,2013-05-03 18:14:00,
2013-05-03 11:19:00,66.1,30.2,24.97,WSW,239,2.0,-999.0,26,-99.99,,,-99.99,dwt +perl,2013-05-03 18:19:00,
2013-05-03 11:24:00,66.5,29.6,24.97,SW,215,4.0,-999.0,25,-99.99,,,-99.99,dwt +perl,2013-05-03 18:24:00,
2013-05-03 11:29:00,66.6,26.6,24.97,WSW,250,9.0,-999.0,22,-99.99,,,-99.99,dwt +perl,2013-05-03 18:29:00,
2013-05-03 11:34:00,66.4,28.5,24.97,WSW,249,10.0,-999.0,24,-99.99,,,-99.99,dwt +perl,2013-05-03 18:34:00,
2013-05-03 11:39:00,66.9,28.9,24.97,WSW,258,6.0,-999.0,24,-99.99,,,-99.99,dwt +perl,2013-05-03 18:39:00,
2013-05-03 11:44:00,66.9,26.8,24.97,WSW,254,7.0,-999.0,22,-99.99,,,-99.99,dwt +perl,2013-05-03 18:44:00,
2013-05-03 11:49:00,66.5,26.5,24.96,SW,233,11.0,-999.0,22,-99.99,,,-99.99,dwt +perl,2013-05-03 18:49:00,
2013-05-03 11:54:00,66.5,27.6,24.96,SW,225,10.0,-999.0,23,-99.99,,,-99.99,dwt +perl,2013-05-03 18:54:00,
2013-05-03 11:59:00,67.4,26.1,24.96,WSW,251,6.0,-999.0,21,-99.99,,,-99.99,dwt +perl,2013-05-03 18:59:00,
2013-05-03 12:04:00,67.2,24.8,24.96,WSW,239,10.0,-999.0,20,-99.99,,,-99.99,dwt +perl,2013-05-03 19:04:00,
2013-05-03 12:09:00,66.8,23.2,24.96,WSW,255,12.0,-999.0,19,-99.99,,,-99.99,dwt +perl,2013-05-03 19:09:00,
2013-05-03 12:14:00,66.3,25.2,24.96,SW,214,7.0,-999.0,21,-99.99,,,-99.99,dwt +perl,2013-05-03 19:14:00,
2013-05-03 12:19:00,66.8,23.2,24.96,West,264,7.0,-999.0,19,-99.99,,,-99.99,dwt +perl,2013-05-03 19:19:00,
2013-05-03 12:24:00,66.8,27.8,24.96,West,260,7.0,-999.0,23,-99.99,,,-99.99,dwt +perl,2013-05-03 19:24:00,
2013-05-03 12:29:00,66.4,25.3,24.96,WSW,241,7.0,-999.0,21,-99.99,,,-99.99,dwt +perl,2013-05-03 19:29:00,
2013-05-03 12:34:00,66.7,28.8,24.95,WNW,283,8.0,-999.0,24,-99.99,,,-99.99,dwt +perl,2013-05-03 19:34:00,
2013-05-03 12:39:00,67.0,26.9,24.95,WSW,237,6.0,-999.0,22,-99.99,,,-99.99,dwt +perl,2013-05-03 19:39:00,
2013-05-03 12:44:00,67.7,27.5,24.95,West,271,5.0,-999.0,22,-99.99,,,-99.99,dwt +perl,2013-05-03 19:44:00,
2013-05-03 12:49:00,68.3,26.9,24.95,West,280,6.0,-999.0,21,-99.99,,,-99.99,dwt +perl,2013-05-03 19:49:00,
2013-05-03 12:54:00,67.7,28.6,24.94,West,263,3.0,-999.0,23,-99.99,,,-99.99,dwt +perl,2013-05-03 19:54:00,
2013-05-03 12:59:00,67.6,27.4,24.94,West,268,5.0,-999.0,22,-99.99,,,-99.99,dwt +perl,2013-05-03 19:59:00,
2013-05-03 13:04:00,68.1,27.8,24.94,SSW,195,3.0,-999.0,22,-99.99,,,-99.99,dwt +perl,2013-05-03 20:04:00,
2013-05-03 13:09:00,68.5,29.2,24.94,WSW,239,6.0,-999.0,23,-99.99,,,-99.99,dwt +perl,2013-05-03 20:09:00,
2013-05-03 13:14:00,69.0,29.6,24.94,SW,224,13.0,-999.0,23,-99.99,,,-99.99,dwt +perl,2013-05-03 20:14:00,
2013-05-03 13:19:00,68.0,27.7,24.94,WNW,286,1.0,-999.0,22,-99.99,,,-99.99,dwt +perl,2013-05-03 20:19:00,
2013-05-03 13:24:00,68.0,28.8,24.93,SW,235,13.0,-999.0,23,-99.99,,,-99.99,dwt +perl,2013-05-03 20:24:00,
2013-05-03 13:29:00,68.8,31.5,24.94,WSW,243,12.0,-999.0,25,-99.99,,,-99.99,dwt +perl,2013-05-03 20:29:00,
2013-05-03 13:34:00,68.6,30.4,24.94,SSW,195,3.0,-999.0,24,-99.99,,,-99.99,dwt +perl,2013-05-03 20:34:00,
2013-05-03 13:39:00,69.2,29.8,24.93,WSW,258,9.0,-999.0,23,-99.99,,,-99.99,dwt +perl,2013-05-03 20:39:00,
2013-05-03 13:44:00,68.7,29.4,24.93,South,176,6.0,-999.0,23,-99.99,,,-99.99,dwt +perl,2013-05-03 20:44:00,
2013-05-03 13:49:00,69.4,30.0,24.93,WSW,242,6.0,-999.0,23,-99.99,,,-99.99,dwt +perl,2013-05-03 20:49:00,
2013-05-03 13:54:00,69.0,29.6,24.93,SSW,204,12.0,-999.0,23,-99.99,,,-99.99,dwt +perl,2013-05-03 20:54:00,
2013-05-03 13:59:00,69.0,29.6,24.93,WSW,251,9.0,-999.0,23,-99.99,,,-99.99,dwt +perl,2013-05-03 20:59:00,
2013-05-03 14:04:00,68.3,29.1,24.92,West,262,4.0,-999.0,23,-99.99,,,-99.99,dwt +perl,2013-05-03 21:04:00,
2013-05-03 14:09:00,68.9,29.6,24.93,West,266,4.0,-999.0,23,-99.99,,,-99.99,dwt +perl,2013-05-03 21:09:00,
2013-05-03 14:14:00,69.3,31.0,24.92,WSW,247,5.0,-999.0,24,-99.99,,,-99.99,dwt +perl,2013-05-03 21:14:00,
2013-05-03 14:19:00,69.1,29.7,24.92,WSW,239,8.0,-999.0,23,-99.99,,,-99.99,dwt +perl,2013-05-03 21:19:00,
2013-05-03 14:24:00,69.2,29.8,24.92,WSW,239,9.0,-999.0,23,-99.99,,,-99.99,dwt +perl,2013-05-03 21:24:00,
2013-05-03 14:29:00,68.9,29.6,24.92,WSW,249,8.0,-999.0,23,-99.99,,,-99.99,dwt +perl,2013-05-03 21:29:00,
2013-05-03 14:34:00,68.7,31.5,24.92,WSW,243,10.0,-999.0,25,-99.99,,,-99.99,dwt +perl,2013-05-03 21:34:00,
2013-05-03 14:39:00,68.4,29.1,24.92,West,264,4.0,-999.0,23,-99.99,,,-99.99,dwt +perl,2013-05-03 21:39:00,
2013-05-03 14:44:00,68.7,29.4,24.92,West,264,11.0,-999.0,23,-99.99,,,-99.99,dwt +perl,2013-05-03 21:44:00,
2013-05-03 14:49:00,69.1,31.8,24.92,WNW,284,8.0,-999.0,25,-99.99,,,-99.99,dwt +perl,2013-05-03 21:49:00,
2013-05-03 14:54:00,68.9,29.6,24.92,WNW,295,6.0,-999.0,23,-99.99,,,-99.99,dwt +perl,2013-05-03 21:54:00,
2013-05-03 14:59:00,68.2,27.9,24.92,SW,235,14.0,-999.0,22,-99.99,,,-99.99,dwt +perl,2013-05-03 21:59:00,
2013-05-03 15:04:00,68.2,27.9,24.91,West,271,8.0,-999.0,22,-99.99,,,-99.99,dwt +perl,2013-05-03 22:04:00,
2013-05-03 15:09:00,68.6,29.3,24.91,West,262,4.0,-999.0,23,-99.99,,,-99.99,dwt +perl,2013-05-03 22:09:00,
2013-05-03 15:14:00,68.6,29.3,24.91,West,262,12.0,-999.0,23,-99.99,,,-99.99,dwt +perl,2013-05-03 22:14:00,
2013-05-03 15:19:00,67.7,27.5,24.91,SW,233,6.0,-999.0,22,-99.99,,,-99.99,dwt +perl,2013-05-03 22:19:00,
2013-05-03 15:24:00,67.7,29.6,24.90,NW,320,5.0,-999.0,24,-99.99,,,-99.99,dwt +perl,2013-05-03 22:24:00,
2013-05-03 15:29:00,68.3,29.1,24.90,West,276,9.0,-999.0,23,-99.99,,,-99.99,dwt +perl,2013-05-03 22:29:00,
2013-05-03 15:34:00,67.4,27.2,24.90,WNW,285,6.0,-999.0,22,-99.99,,,-99.99,dwt +perl,2013-05-03 22:34:00,
2013-05-03 15:39:00,67.7,26.4,24.90,WSW,249,4.0,-999.0,21,-99.99,,,-99.99,dwt +perl,2013-05-03 22:39:00,
2013-05-03 15:44:00,68.0,28.8,24.90,SW,234,7.0,-999.0,23,-99.99,,,-99.99,dwt +perl,2013-05-03 22:44:00,
2013-05-03 15:49:00,68.6,27.1,24.90,WNW,290,4.0,-999.0,21,-99.99,,,-99.99,dwt +perl,2013-05-03 22:49:00,
2013-05-03 15:54:00,68.5,27.0,24.89,WSW,241,3.0,-999.0,21,-99.99,,,-99.99,dwt +perl,2013-05-03 22:54:00,
2013-05-03 15:59:00,68.2,26.8,24.89,WSW,247,11.0,-999.0,21,-99.99,,,-99.99,dwt +perl,2013-05-03 22:59:00,
2013-05-03 16:04:00,67.4,24.9,24.89,West,260,5.0,-999.0,20,-99.99,,,-99.99,dwt +perl,2013-05-03 23:04:00,
2013-05-03 16:09:00,68.0,29.9,24.89,West,279,8.0,-999.0,24,-99.99,,,-99.99,dwt +perl,2013-05-03 23:09:00,
2013-05-03 16:14:00,68.4,26.9,24.88,WSW,255,8.0,-999.0,21,-99.99,,,-99.99,dwt +perl,2013-05-03 23:14:00,
2013-05-03 16:19:00,67.6,25.1,24.88,WSW,241,10.0,-999.0,20,-99.99,,,-99.99,dwt +perl,2013-05-03 23:19:00,
2013-05-03 16:24:00,67.0,25.8,24.88,WSW,256,8.0,-999.0,21,-99.99,,,-99.99,dwt +perl,2013-05-03 23:24:00,
2013-05-03 16:29:00,66.9,24.5,24.88,WNW,283,8.0,-999.0,20,-99.99,,,-99.99,dwt +perl,2013-05-03 23:29:00,
2013-05-03 16:34:00,67.0,24.6,24.88,West,278,9.0,-999.0,20,-99.99,,,-99.99,dwt +perl,2013-05-03 23:34:00,
2013-05-03 16:39:00,67.5,26.2,24.88,SSW,195,17.0,-999.0,21,-99.99,,,-99.99,dwt +perl,2013-05-03 23:39:00,
2013-05-03 16:44:00,67.0,26.9,24.88,WSW,237,8.0,-999.0,22,-99.99,,,-99.99,dwt +perl,2013-05-03 23:44:00,
2013-05-03 16:49:00,66.8,25.6,24.88,West,272,11.0,-999.0,21,-99.99,,,-99.99,dwt +perl,2013-05-03 23:49:00,
2013-05-03 16:54:00,66.8,25.6,24.88,SW,228,9.0,-999.0,21,-99.99,,,-99.99,dwt +perl,2013-05-03 23:54:00,
2013-05-03 16:59:00,66.6,24.3,24.88,WSW,239,14.0,-999.0,20,-99.99,,,-99.99,dwt +perl,2013-05-03 23:59:00,
2013-05-03 17:04:00,66.4,26.4,24.88,WSW,242,17.0,-999.0,22,-99.99,,,-99.99,dwt +perl,2013-05-04 00:04:00,
2013-05-03 17:09:00,66.6,25.5,24.88,WSW,256,8.0,-999.0,21,-99.99,,,-99.99,dwt +perl,2013-05-04 00:09:00,
2013-05-03 17:14:00,66.2,26.2,24.87,WSW,250,11.0,-999.0,22,-99.99,,,-99.99,dwt +perl,2013-05-04 00:14:00,
2013-05-03 17:19:00,66.1,25.0,24.87,West,279,11.0,-999.0,21,-99.99,,,-99.99,dwt +perl,2013-05-04 00:19:00,
2013-05-03 17:24:00,65.3,24.4,24.87,WSW,247,12.0,-999.0,21,-99.99,,,-99.99,dwt +perl,2013-05-04 00:24:00,
2013-05-03 17:29:00,65.7,25.8,24.87,West,262,9.0,-999.0,22,-99.99,,,-99.99,dwt +perl,2013-05-04 00:29:00,
2013-05-03 17:34:00,66.3,26.3,24.87,SW,220,13.0,-999.0,22,-99.99,,,-99.99,dwt +perl,2013-05-04 00:34:00,
2013-05-03 17:39:00,66.6,27.6,24.87,SW,223,9.0,-999.0,23,-99.99,,,-99.99,dwt +perl,2013-05-04 00:39:00,
2013-05-03 17:44:00,65.9,27.1,24.87,WSW,249,11.0,-999.0,23,-99.99,,,-99.99,dwt +perl,2013-05-04 00:44:00,
2013-05-03 17:49:00,66.1,27.2,24.87,WSW,258,7.0,-999.0,23,-99.99,,,-99.99,dwt +perl,2013-05-04 00:49:00,
2013-05-03 17:54:00,65.9,28.1,24.87,West,264,9.0,-999.0,24,-99.99,,,-99.99,dwt +perl,2013-05-04 00:54:00,
2013-05-03 17:59:00,65.4,25.6,24.87,SW,228,15.0,-999.0,22,-99.99,,,-99.99,dwt +perl,2013-05-04 00:59:00,
2013-05-03 18:04:00,65.3,27.6,24.86,West,266,9.0,-999.0,24,-99.99,,,-99.99,dwt +perl,2013-05-04 01:04:00,
2013-05-03 18:09:00,65.4,26.6,24.86,WSW,243,13.0,-999.0,23,-99.99,,,-99.99,dwt +perl,2013-05-04 01:09:00,
2013-05-03 18:14:00,64.7,27.1,24.86,WSW,237,10.0,-999.0,24,-99.99,,,-99.99,dwt +perl,2013-05-04 01:14:00,
2013-05-03 18:19:00,65.0,26.3,24.86,SW,226,16.0,-999.0,23,-99.99,,,-99.99,dwt +perl,2013-05-04 01:19:00,
2013-05-03 18:24:00,64.5,27.9,24.86,WSW,238,18.0,-999.0,25,-99.99,,,-99.99,dwt +perl,2013-05-04 01:24:00,
2013-05-03 18:29:00,64.1,26.6,24.86,SW,226,12.0,-999.0,24,-99.99,,,-99.99,dwt +perl,2013-05-04 01:29:00,
2013-05-03 18:34:00,64.1,27.6,24.86,WSW,243,13.0,-999.0,25,-99.99,,,-99.99,dwt +perl,2013-05-04 01:34:00,
2013-05-03 18:39:00,64.0,27.5,24.85,WSW,239,11.0,-999.0,25,-99.99,,,-99.99,dwt +perl,2013-05-04 01:39:00,
2013-05-03 18:44:00,63.4,27.9,24.85,SW,233,11.0,-999.0,26,-99.99,,,-99.99,dwt +perl,2013-05-04 01:44:00,
2013-05-03 18:49:00,63.2,28.7,24.85,SW,233,15.0,-999.0,27,-99.99,,,-99.99,dwt +perl,2013-05-04 01:49:00,
2013-05-03 18:54:00,63.0,27.6,24.85,WSW,246,12.0,-999.0,26,-99.99,,,-99.99,dwt +perl,2013-05-04 01:54:00,
2013-05-03 18:59:00,62.5,27.1,24.85,SW,233,11.0,-999.0,26,-99.99,,,-99.99,dwt +perl,2013-05-04 01:59:00,
2013-05-03 19:04:00,62.2,27.8,24.84,WSW,238,16.0,-999.0,27,-99.99,,,-99.99,dwt +perl,2013-05-04 02:04:00,
2013-05-03 19:09:00,61.8,27.5,24.85,SW,236,13.0,-999.0,27,-99.99,,,-99.99,dwt +perl,2013-05-04 02:09:00,
2013-05-03 19:14:00,61.4,28.0,24.85,WSW,240,14.0,-999.0,28,-99.99,,,-99.99,dwt +perl,2013-05-04 02:14:00,
2013-05-03 19:19:00,61.0,27.7,24.84,WSW,238,15.0,-999.0,28,-99.99,,,-99.99,dwt +perl,2013-05-04 02:19:00,
2013-05-03 19:24:00,60.6,27.3,24.84,West,265,14.0,-999.0,28,-99.99,,,-99.99,dwt +perl,2013-05-04 02:24:00,
2013-05-03 19:29:00,60.4,27.1,24.84,WSW,238,16.0,-999.0,28,-99.99,,,-99.99,dwt +perl,2013-05-04 02:29:00,
2013-05-03 19:34:00,60.0,27.6,24.84,WSW,243,13.0,-999.0,29,-99.99,,,-99.99,dwt +perl,2013-05-04 02:34:00,
2013-05-03 19:39:00,59.9,27.6,24.84,WSW,247,11.0,-999.0,29,-99.99,,,-99.99,dwt +perl,2013-05-04 02:39:00,
2013-05-03 19:44:00,59.9,26.7,24.84,WSW,252,10.0,-999.0,28,-99.99,,,-99.99,dwt +perl,2013-05-04 02:44:00,
2013-05-03 19:49:00,59.8,25.8,24.84,WSW,245,10.0,-999.0,27,-99.99,,,-99.99,dwt +perl,2013-05-04 02:49:00,
2013-05-03 19:54:00,59.7,25.7,24.84,WSW,251,10.0,-999.0,27,-99.99,,,-99.99,dwt +perl,2013-05-04 02:54:00,
2013-05-03 19:59:00,59.9,24.9,24.84,WSW,247,12.0,-999.0,26,-99.99,,,-99.99,dwt +perl,2013-05-04 02:59:00,
2013-05-03 20:04:00,60.2,24.2,24.84,WSW,246,12.0,-999.0,25,-99.99,,,-99.99,dwt +perl,2013-05-04 03:04:00,
2013-05-03 20:09:00,60.5,21.5,24.84,WSW,253,10.0,-999.0,22,-99.99,,,-99.99,dwt +perl,2013-05-04 03:09:00,
2013-05-03 20:14:00,60.6,21.5,24.84,WSW,247,12.0,-999.0,22,-99.99,,,-99.99,dwt +perl,2013-05-04 03:14:00,
2013-05-03 20:19:00,60.3,21.3,24.85,WSW,249,11.0,-999.0,22,-99.99,,,-99.99,dwt +perl,2013-05-04 03:19:00,
2013-05-03 20:24:00,60.4,21.4,24.84,WSW,251,10.0,-999.0,22,-99.99,,,-99.99,dwt +perl,2013-05-04 03:24:00,
2013-05-03 20:29:00,60.4,20.3,24.85,WSW,256,10.0,-999.0,21,-99.99,,,-99.99,dwt +perl,2013-05-04 03:29:00,
2013-05-03 20:34:00,60.4,20.3,24.85,WSW,240,11.0,-999.0,21,-99.99,,,-99.99,dwt +perl,2013-05-04 03:34:00,
2013-05-03 20:39:00,60.5,19.2,24.85,WSW,252,8.0,-999.0,20,-99.99,,,-99.99,dwt +perl,2013-05-04 03:39:00,
2013-05-03 20:44:00,60.8,17.0,24.85,West,262,9.0,-999.0,18,-99.99,,,-99.99,dwt +perl,2013-05-04 03:44:00,
2013-05-03 20:49:00,61.0,14.5,24.85,WSW,258,7.0,-999.0,16,-99.99,,,-99.99,dwt +perl,2013-05-04 03:49:00,
2013-05-03 20:54:00,61.2,11.6,24.85,WSW,249,10.0,-999.0,14,-99.99,,,-99.99,dwt +perl,2013-05-04 03:54:00,
2013-05-03 20:59:00,61.1,11.6,24.85,West,265,9.0,-999.0,14,-99.99,,,-99.99,dwt +perl,2013-05-04 03:59:00,
2013-05-03 21:00:00,61.3,6.4,24.85,West,266,9.0,-999.0,11,-99.99,,,-99.99,dwt +perl,2013-05-04 04:00:00,
2013-05-03 21:04:00,61.1,9.9,24.85,West,265,11.0,-999.0,13,-99.99,,,-99.99,dwt +perl,2013-05-04 04:04:00,
2013-05-03 21:09:00,61.3,6.4,24.85,West,266,9.0,-999.0,11,-99.99,,,-99.99,dwt +perl,2013-05-04 04:09:00,
2013-05-03 21:19:00,61.8,-0.1,24.86,West,265,8.0,-999.0,8,-99.99,,,-99.99,dwt +perl,2013-05-04 04:19:00,
2013-05-03 21:24:00,62.1,-2.7,24.86,West,273,7.0,-999.0,7,-99.99,,,-99.99,dwt +perl,2013-05-04 04:24:00,
2013-05-03 21:29:00,62.2,0.2,24.86,West,268,7.0,-999.0,8,-99.99,,,-99.99,dwt +perl,2013-05-04 04:29:00,
2013-05-03 21:34:00,62.4,0.3,24.86,West,266,7.0,-999.0,8,-99.99,,,-99.99,dwt +perl,2013-05-04 04:34:00,
2013-05-03 21:39:00,62.8,0.6,24.86,West,270,2.0,-999.0,8,-99.99,,,-99.99,dwt +perl,2013-05-04 04:39:00,
2013-05-03 21:44:00,62.8,-5.4,24.86,NW,306,2.0,-999.0,6,-99.99,,,-99.99,dwt +perl,2013-05-04 04:44:00,
2013-05-03 21:49:00,62.3,-2.5,24.86,NW,306,2.0,-999.0,7,-99.99,,,-99.99,dwt +perl,2013-05-04 04:49:00,
2013-05-03 21:54:00,62.2,2.7,24.86,NW,321,3.0,-999.0,9,-99.99,,,-99.99,dwt +perl,2013-05-04 04:54:00,
2013-05-03 21:59:00,61.9,0.0,24.86,NW,321,1.0,-999.0,8,-99.99,,,-99.99,dwt +perl,2013-05-04 04:59:00,
2013-05-03 22:04:00,61.7,-3.0,24.86,North,10,6.0,-999.0,7,-99.99,,,-99.99,dwt +perl,2013-05-04 05:04:00,
2013-05-03 22:09:00,61.6,2.2,24.86,NNE,16,3.0,-999.0,9,-99.99,,,-99.99,dwt +perl,2013-05-04 05:09:00,
2013-05-03 22:14:00,61.2,8.2,24.86,NNE,15,2.0,-999.0,12,-99.99,,,-99.99,dwt +perl,2013-05-04 05:14:00,
2013-05-03 22:19:00,60.7,7.8,24.86,NNE,15,2.0,-999.0,12,-99.99,,,-99.99,dwt +perl,2013-05-04 05:19:00,
2013-05-03 22:24:00,60.6,12.7,24.85,NNE,21,4.0,-999.0,15,-99.99,,,-99.99,dwt +perl,2013-05-04 05:24:00,
2013-05-03 22:29:00,60.7,12.8,24.85,NNE,28,5.0,-999.0,15,-99.99,,,-99.99,dwt +perl,2013-05-04 05:29:00,
2013-05-03 22:34:00,60.8,14.3,24.85,NNE,29,4.0,-999.0,16,-99.99,,,-99.99,dwt +perl,2013-05-04 05:34:00,
2013-05-03 22:39:00,60.7,14.3,24.85,NNE,27,2.0,-999.0,16,-99.99,,,-99.99,dwt +perl,2013-05-04 05:39:00,
2013-05-03 22:44:00,60.6,16.9,24.85,NNE,29,3.0,-999.0,18,-99.99,,,-99.99,dwt +perl,2013-05-04 05:44:00,
2013-05-03 22:49:00,60.7,15.6,24.85,NNE,29,3.0,-999.0,17,-99.99,,,-99.99,dwt +perl,2013-05-04 05:49:00,
2013-05-03 22:54:00,60.7,15.6,24.85,NNE,30,2.0,-999.0,17,-99.99,,,-99.99,dwt +perl,2013-05-04 05:54:00,
2013-05-03 22:59:00,61.0,14.5,24.85,NNE,30,3.0,-999.0,16,-99.99,,,-99.99,dwt +perl,2013-05-04 05:59:00,
2013-05-03 23:04:00,60.9,17.1,24.85,NNE,24,3.0,-999.0,18,-99.99,,,-99.99,dwt +perl,2013-05-04 06:04:00,
2013-05-03 23:09:00,61.2,10.0,24.84,NNE,14,3.0,-999.0,13,-99.99,,,-99.99,dwt +perl,2013-05-04 06:09:00,
2013-05-03 23:14:00,61.8,13.7,24.85,NNE,23,2.0,-999.0,15,-99.99,,,-99.99,dwt +perl,2013-05-04 06:14:00,
2013-05-03 23:19:00,61.8,12.1,24.84,NNE,31,3.0,-999.0,14,-99.99,,,-99.99,dwt +perl,2013-05-04 06:19:00,
2013-05-03 23:24:00,61.9,13.8,24.84,NNE,31,2.0,-999.0,15,-99.99,,,-99.99,dwt +perl,2013-05-04 06:24:00,
2013-05-03 23:29:00,61.9,8.8,24.84,NNE,31,3.0,-999.0,12,-99.99,,,-99.99,dwt +perl,2013-05-04 06:29:00,
2013-05-03 23:34:00,62.1,10.7,24.84,NNE,31,4.0,-999.0,13,-99.99,,,-99.99,dwt +perl,2013-05-04 06:34:00,
2013-05-03 23:39:00,62.0,10.6,24.84,NNE,31,5.0,-999.0,13,-99.99,,,-99.99,dwt +perl,2013-05-04 06:39:00,
2013-05-03 23:44:00,62.2,14.0,24.84,NNE,30,4.0,-999.0,15,-99.99,,,-99.99,dwt +perl,2013-05-04 06:44:00,
2013-05-03 23:49:00,62.1,13.9,24.84,NNE,29,3.0,-999.0,15,-99.99,,,-99.99,dwt +perl,2013-05-04 06:49:00,
2013-05-03 23:54:00,62.2,12.4,24.84,NNE,29,4.0,-999.0,14,-99.99,,,-99.99,dwt +perl,2013-05-04 06:54:00,
2013-05-03 23:59:00,62.2,14.0,24.84,NNE,29,3.0,-999.0,15,-99.99,,,-99.99,dwt +perl,2013-05-04 06:59:00,